Location: Asarope
(8.2500°N, 4.4833°E)
Time: 14:16:57
(UTC+00:00)

USA 229 - Pass Details

Date: 07 June 2020
Orbit: 980 x 1233 km, 63.4° (Epoch: 24 June)

Event Time Altitude Azimuth Distance (km) Brightness Sun altitude
Rises 03:07:27 0° 335° (NNW) 4,089 6.8 -30.7°
Reaches altitude 10° 03:10:10 10° 334° (NNW) 3,148 6.2 -30.2°
Maximum altitude 03:17:49 82° 248° (WSW) 1,242 3.8 -28.6°
Drops below altitude 10° 03:25:33 10° 160° (SSE) 3,179 6.1 -26.9°
Sets 03:28:18 0° 159° (SSE) 4,132 6.7 -26.3°
